| time (UTC) | temp F | wind direction | speed MPH | gust MPH | rain 1hr in | rain 24hr in | rain mn in | humidity % | barometer mb |
| 20260504201908 | 63 | 142 | 1.0 | 3.0 | 0.00 | 0.00 | 0.00 | 76 | 1017.8 |
| 20260504201405 | 63 | 109 | 1.0 | 3.0 | 0.00 | 0.00 | 0.00 | 75 | 1017.8 |
| 20260504200906 | 63 | 130 | 2.0 | 5.0 | 0.00 | 0.00 | 0.00 | 75 | 1017.8 |
| 20260504200406 | 63 | 138 | 2.0 | 5.0 | 0.00 | 0.00 | 0.00 | 75 | 1017.9 |
| 20260504193908 | 63 | 99 | 2.0 | 5.0 | 0.00 | 0.00 | 0.00 | 76 | 1017.8 |
| 20260504193405 | 63 | 114 | 2.0 | 8.0 | 0.00 | 0.00 | 0.00 | 76 | 1017.8 |
| 20260504191912 | 63 | 144 | 2.0 | 7.0 | 0.00 | 0.00 | 0.00 | 75 | 1017.6 |
| 20260504191405 | 63 | 139 | 1.0 | 3.0 | 0.00 | 0.00 | 0.00 | 75 | 1017.8 |
| 20260504190909 | 63 | 107 | 2.0 | 7.0 | 0.00 | 0.00 | 0.00 | 75 | 1017.8 |
| 20260504190406 | 63 | 134 | 3.0 | 7.0 | 0.00 | 0.00 | 0.00 | 74 | 1017.9 |
| 20260504184405 | 63 | 130 | 2.0 | 3.0 | 0.00 | 0.00 | 0.00 | 73 | 1017.7 |
| 20260504183407 | 63 | 143 | 1.0 | 5.0 | 0.00 | 0.00 | 0.00 | 72 | 1017.7 |
| 20260504181905 | 64 | 132 | 2.0 | 7.0 | 0.00 | 0.00 | 0.00 | 71 | 1017.5 |
| 20260504181405 | 64 | 138 | 1.0 | 3.0 | 0.00 | 0.00 | 0.00 | 71 | 1017.5 |
| 20260504180905 | 64 | 138 | 2.0 | 3.0 | 0.00 | 0.00 | 0.00 | 70 | 1017.6 |
| 20260504180405 | 64 | 131 | 2.0 | 6.0 | 0.00 | 0.00 | 0.00 | 70 | 1017.5 |
| 20260504174405 | 65 | 118 | 2.0 | 6.0 | 0.00 | 0.00 | 0.00 | 68 | 1017.3 |
| 20260504173905 | 66 | 123 | 3.0 | 8.0 | 0.00 | 0.00 | 0.00 | 68 | 1017.3 |
| 20260504173405 | 66 | 160 | 2.0 | 7.0 | 0.00 | 0.00 | 0.00 | 67 | 1017.4 |
| 20260504171905 | 66 | 129 | 1.0 | 7.0 | 0.00 | 0.00 | 0.00 | 66 | 1017.4 |
| 20260504171405 | 66 | 149 | 2.0 | 5.0 | 0.00 | 0.00 | 0.00 | 67 | 1017.4 |
| 20260504170906 | 66 | 135 | 1.0 | 5.0 | 0.00 | 0.00 | 0.00 | 64 | 1017.4 |
| 20260504160405 | 67 | 121 | 1.0 | 7.0 | 0.00 | 0.00 | 0.00 | 68 | 1017.7 |
| 20260504150905 | 69 | 160 | 2.0 | 7.0 | 0.00 | 0.00 | 0.00 | 52 | 1017.7 |
| 20260504150408 | 70 | 148 | 2.0 | 6.0 | 0.00 | 0.00 | 0.00 | 56 | 1017.8 |
| 20260504140904 | 67 | 187 | 1.0 | 5.0 | 0.00 | 0.00 | 0.00 | 68 | 1018.3 |
| 20260504110406 | 66 | 153 | 3.0 | 8.0 | 0.00 | 0.00 | 0.00 | 66 | 1019.5 |
| 20260504081907 | 65 | 142 | 2.0 | 3.0 | 0.00 | 0.00 | 0.00 | 63 | 1019.6 |
| 20260504081408 | 65 | 189 | 1.0 | 3.0 | 0.00 | 0.00 | 0.00 | 61 | 1019.5 |
| 20260504080908 | 65 | 159 | 2.0 | 6.0 | 0.00 | 0.00 | 0.00 | 60 | 1019.4 |
| 20260504070407 | 63 | 81 | 0.0 | 3.0 | 0.00 | 0.00 | 0.00 | 58 | 1018.8 |
| 20260504050407 | 61 | 32 | 1.0 | 3.0 | 0.00 | 0.00 | 0.00 | 57 | 1018.5 |
| 20260504044407 | 61 | 47 | 1.0 | 2.0 | 0.00 | 0.00 | 0.00 | 55 | 1018.5 |
| 20260504043906 | 61 | 42 | 2.0 | 3.0 | 0.00 | 0.00 | 0.00 | 54 | 1018.5 |
| 20260504043407 | 60 | 40 | 2.0 | 3.0 | 0.00 | 0.00 | 0.00 | 54 | 1018.4 |
| 20260504041907 | 60 | 46 | 1.0 | 3.0 | 0.00 | 0.00 | 0.00 | 54 | 1018.3 |
| 20260504041407 | 60 | 62 | 1.0 | 3.0 | 0.00 | 0.00 | 0.00 | 56 | 1018.3 |
| 20260504040907 | 60 | 46 | 2.0 | 3.0 | 0.00 | 0.00 | 0.00 | 56 | 1018.3 |
| 20260504040410 | 60 | 41 | 2.0 | 3.0 | 0.00 | 0.00 | 0.00 | 57 | 1018.3 |
| 20260504034907 | 60 | 42 | 2.0 | 3.0 | 0.00 | 0.00 | 0.00 | 52 | 1018.3 |
| 20260504034407 | 60 | 46 | 2.0 | 2.0 | 0.00 | 0.00 | 0.00 | 52 | 1018.3 |
| 20260504033908 | 60 | 44 | 2.0 | 2.0 | 0.00 | 0.00 | 0.00 | 53 | 1018.3 |
| 20260504033406 | 60 | 42 | 2.0 | 3.0 | 0.00 | 0.00 | 0.00 | 53 | 1018.2 |
| 20260504031914 | 60 | 37 | 2.0 | 3.0 | 0.00 | 0.00 | 0.00 | 53 | 1018.3 |
| 20260504030907 | 59 | 42 | 2.0 | 3.0 | 0.00 | 0.00 | 0.00 | 52 | 1018.3 |
| 20260504030406 | 59 | 48 | 2.0 | 3.0 | 0.00 | 0.00 | 0.00 | 53 | 1018.3 |
| 20260504024407 | 60 | 37 | 1.0 | 2.0 | 0.00 | 0.00 | 0.00 | 54 | 1018.6 |
| 20260504023907 | 60 | 37 | 1.0 | 2.0 | 0.00 | 0.00 | 0.00 | 53 | 1018.5 |
| 20260504023406 | 60 | 42 | 1.0 | 3.0 | 0.00 | 0.00 | 0.00 | 54 | 1018.5 |
| 20260504021909 | 61 | 65 | 1.0 | 2.0 | 0.00 | 0.00 | 0.00 | 43 | 1018.4 |
| 20260504020907 | 61 | 40 | 1.0 | 3.0 | 0.00 | 0.00 | 0.00 | 42 | 1018.4 |
| 20260504014907 | 60 | 35 | 1.0 | 2.0 | 0.00 | 0.00 | 0.00 | 47 | 1018.2 |
| 20260504013906 | 60 | 37 | 1.0 | 3.0 | 0.00 | 0.00 | 0.00 | 47 | 1018.3 |
| 20260504013407 | 60 | 34 | 2.0 | 3.0 | 0.00 | 0.00 | 0.00 | 51 | 1018.3 |
| 20260504011907 | 60 | 14 | 2.0 | 3.0 | 0.00 | 0.00 | 0.00 | 54 | 1018.5 |
| 20260504011406 | 59 | 30 | 2.0 | 3.0 | 0.00 | 0.00 | 0.00 | 54 | 1018.5 |
| 20260504010907 | 59 | 11 | 1.0 | 2.0 | 0.00 | 0.00 | 0.00 | 55 | 1018.5 |
| 20260504004906 | 60 | 28 | 2.0 | 3.0 | 0.00 | 0.00 | 0.00 | 54 | 1018.7 |
| 20260504004407 | 60 | 19 | 2.0 | 3.0 | 0.00 | 0.00 | 0.00 | 55 | 1018.7 |
| 20260504003906 | 60 | 25 | 2.0 | 2.0 | 0.00 | 0.00 | 0.00 | 55 | 1018.7 |
| 20260504003411 | 60 | 27 | 2.0 | 3.0 | 0.00 | 0.00 | 0.00 | 54 | 1018.7 |
| 20260504001906 | 61 | 4 | 1.0 | 2.0 | 0.00 | 0.00 | 0.00 | 52 | 1018.7 |
| 20260504000408 | 61 | 43 | 2.0 | 3.0 | 0.00 | 0.00 | 0.00 | 51 | 1018.7 |
| 20260503234908 | 62 | 32 | 2.0 | 3.0 | 0.00 | 0.00 | 0.00 | 47 | 1018.7 |
| 20260503234406 | 62 | 26 | 1.0 | 3.0 | 0.00 | 0.00 | 0.00 | 47 | 1018.7 |
| 20260503233906 | 62 | 58 | 2.0 | 3.0 | 0.00 | 0.00 | 0.00 | 46 | 1018.7 |
| 20260503231906 | 61 | 70 | 2.0 | 3.0 | 0.00 | 0.00 | 0.00 | 46 | 1018.9 |
| 20260503231406 | 61 | 28 | 2.0 | 3.0 | 0.00 | 0.00 | 0.00 | 48 | 1018.9 |
| 20260503230907 | 61 | 33 | 1.0 | 3.0 | 0.00 | 0.00 | 0.00 | 48 | 1019.1 |
| 20260503230409 | 60 | 78 | 1.0 | 3.0 | 0.00 | 0.00 | 0.00 | 50 | 1019.1 |
| 20260503223907 | 61 | 8 | 1.0 | 2.0 | 0.00 | 0.00 | 0.00 | 53 | 1019.3 |
| 20260503223406 | 61 | 20 | 1.0 | 5.0 | 0.00 | 0.00 | 0.00 | 54 | 1019.5 |
| 20260503221407 | 60 | 29 | 2.0 | 5.0 | 0.00 | 0.00 | 0.00 | 56 | 1019.4 |
| 20260503220910 | 60 | 21 | 2.0 | 3.0 | 0.00 | 0.00 | 0.00 | 56 | 1019.4 |
| 20260503220406 | 60 | 21 | 2.0 | 3.0 | 0.00 | 0.00 | 0.00 | 55 | 1019.5 |
| 20260503214406 | 60 | 30 | 1.0 | 3.0 | 0.00 | 0.00 | 0.00 | 56 | 1019.4 |
| 20260503213906 | 59 | 39 | 2.0 | 3.0 | 0.00 | 0.00 | 0.00 | 57 | 1019.4 |
| 20260503213406 | 59 | 31 | 2.0 | 3.0 | 0.00 | 0.00 | 0.00 | 61 | 1019.4 |
| 20260503211906 | 59 | 34 | 2.0 | 3.0 | 0.00 | 0.00 | 0.00 | 65 | 1019.4 |
| 20260503211406 | 59 | 33 | 1.0 | 3.0 | 0.00 | 0.00 | 0.00 | 66 | 1019.4 |
| 20260503210406 | 60 | 45 | 2.0 | 3.0 | 0.00 | 0.00 | 0.00 | 67 | 1019.5 |
| 20260503204906 | 59 | 26 | 1.0 | 2.0 | 0.00 | 0.00 | 0.00 | 67 | 1019.4 |
| 20260503204406 | 59 | 11 | 2.0 | 3.0 | 0.00 | 0.00 | 0.00 | 67 | 1019.4 |
| 20260503203906 | 60 | 93 | 1.0 | 3.0 | 0.00 | 0.00 | 0.00 | 67 | 1019.4 |